Simultaneous Nadir Overpasses (SNOs) Predictions

Prediction of SNOs between AQUA and NPP Satellite Orbit:

Table of predicted SNOs for the next 14.0 days since TLE Epoch: 3/14/2014
Index Date (AQUA) Time (AQUA) Lat,Lon (AQUA) SZA (AQUA ) Date (NPP) Time (NPP) Lat,Lon (NPP) SZA (NPP ) Distance(km) Time Diff (sec)
1 03/16/2014 03:56:11 69.01, -12.99 106.78 03/16/2014 03:55:27 69.00, -13.04 106.85 2.37 44
2 03/16/2014 04:44:44 -72.01, 159.14 76.31 03/16/2014 04:45:16 -72.01, 159.14 76.34 0.15 32
3 03/18/2014 20:12:22 70.21, 104.51 104.49 03/18/2014 20:12:07 70.21, 104.48 104.51 1.13 15
4 03/18/2014 21:01:00 -72.90, -83.34 78.32 03/18/2014 21:02:01 -72.91, -83.29 78.40 2.08 61
5 03/21/2014 11:40:05 -68.18, 50.09 74.53 03/21/2014 11:39:04 -68.18, 50.06 74.45 1.35 61
6 03/21/2014 12:28:33 71.32,-137.91 102.27 03/21/2014 12:28:48 71.32,-137.90 102.25 0.28 15
7 03/24/2014 03:56:11 -69.47, 167.58 76.89 03/24/2014 03:55:41 -69.46, 167.56 76.85 0.94 30
8 03/24/2014 04:44:43 72.35, -20.26 100.13 03/24/2014 04:45:29 72.36, -20.21 100.06 1.81 46
9 03/26/2014 19:24:13 66.03, 111.87 105.50 03/26/2014 19:22:59 66.07, 111.80 105.57 5.97 74
10 03/26/2014 20:12:18 -70.66, -74.83 79.18 03/26/2014 20:12:20 -70.66, -74.84 79.18 0.36 2




NCC Satellite Simultaneous Nadir Overpasses (SNOs) Prediction Service
